Starlink 30849

operational
NORAD ID: 58245 Int'l Des: 2023-171 Owner: SPXS Country: US Constellation: starlink
LEOCIRCULAR

Starlink 30849について

説明を読み込み中...

リアルタイム位置

3D地球を読み込み中...

次回通過

高度履歴

Altitude vs Time

uPlot chart will show altitude changes over time

軌道要素

1 58245U 23171R 25352.48209188 .00001221 00000-0 10545-3 0 9999
2 58245 43.0054 6.9230 0001291 276.6240 83.4455 15.02538352117510
Epoch: Dec 18, 2025 • Age: 10 hours

現在のステータス

高度 561.7 km
速度 7.59 km/s
衛星直下点 37.31°N, 10.01°E
打ち上げ日 Nov 8, 2023
運用期間 2.1 years
タイプ internet

技術仕様

分類 Payload
質量 730.00 kg
乾燥質量 700.00 kg
総質量 730.00 kg
長さ 0.30 m
直径 4.10 m
スパン 29.00 m
形状 Box + pan
製造者 SPXS
バスタイプ Starlink V2M
フェーズステータス In Orbit
所有者/国 SPXS/US

大規模コンステレーション

Loading constellations...